Showing default

ORBASTRO-JEN1, 69006

Orbit data source: Space-Track

ORBASTRO-JEN1, 69006 is a payload satellite owned by OrbAstro (UK) in SSO that was launched on Sun, 03 May 2026 UTC via an FALCON 9 launch vehicle from the Air Force Western Test Range (AFWTR). Payload-class satellites include a variety of spacecraft equipped with specific instruments for various scientific and technological missions. These include communications satellites like Starlink; space stations such as the ISS; scientific satellites like the Hubble; Earth observation satellites from companies like Planet Labs, Umbra, and HawkEye 360; GPS; miniature CubeSats for education and research; and military/defense satellites.

Loading next visibility...
Identifier
69006, 2026-100AC
Orbit
SSO
Country
Flag of UKUK
Related business
Manufacturer
OrbAstro
Mission
Operational Commercial Radar Imaging
Bus & Motor
CUBESAT 6U, Unknown motor
Mass
~10 kg wet, ~10 kg dry
Launch date (UTC)
2026-05-03 (3 months ago)
Launch vehicle
FALCON 9
Launch site
Air Force Western Test Range (AFWTR)
Object type
Payload
Rocket body
Debris
Shape & HBR
Box + 1 Pan, 14.5 m
Radar Cross Section
0.776 m², Medium (>0.1 m² and < 1m²)

Expand to show TLE details & history
Last TLE update: 16 hours ago

TLE from 16 hours ago
0 ORBASTRO-JEN1
1 69006U 26100AC  26201.99367830  .00003308  00000-0  15453-3 0  9991
2 69006  97.4005  99.1897 0002269 235.4402 124.6619 15.20489930 11945
Epoch: 2026-07-20T23:50Z
TLE epoch observation values (Epoch: 2026-07-20T23:50:53.805Z)
Latitude
-0.00005°
Longitude
162.69577°
Altitude
508.342 km
Speed
7.609 km/s
True Right ascension
06h 36m 45s
True Declination
0° 00' 00"
Sunlit
Object was in daylight at epoch
Visualization orbit readout
Latitude
Unknown
Longitude
Unknown
Altitude
Unknown
Speed
Unknown
Apparent Right ascension
Unknown
Apparent Declination
Unknown
Sunlit
N/A
Visualization observer readout
Local Sidereal Time
05:10:21
Azimuth
Unknown
Elevation
Unknown
Doppler factor
Unknown
Orbital elements
Apogee altitude
502.888 km
Perigee altitude
499.766 km
Semi-major axis
6,879.464 km
Eccentricity
0.00023
Inclination
97.4005°
RAAN
99.1897°
Arg. of periapsis
235.4402°
True anomaly
124.68328°
Mean anomaly
124.6619°
Eccentric anomaly
124.67259°
Mean motion
3.80374 °/min
Orbital period
94.64 mins
BSTAR
0.00015453
Loading maneuver chart data...
Computing Atmospheric mass density...
Loading historical data...
Loading historical data...
Loading historical data...
Loading historical data...
Loading historical data...
Loading historical data...
Loading historical data...

Documentation

Showing up to 5 results
|